This is the latest recevied weather packets stored in our database for station/object Aulendorf. If no packets are shown the sender has not sent any weather packets the latest 10 day(s).
| Time | Temp. | Humidity | Pressure | Rain* | Wind** | Luminosity | Snow |
|---|---|---|---|---|---|---|---|
| 1777930329 | 14.44° C | 65% | 1010 hPa | 0 mm | - | - | - |
| 1777928529 | 15.56° C | 61% | 1009.8 hPa | 0 mm | - | - | - |
| 1777926729 | 16.11° C | 57% | 1009.8 hPa | 0 mm | - | - | - |
| 1777924929 | 16.11° C | 53% | 1009.8 hPa | 0 mm | - | - | - |
| 1777923129 | 16.67° C | 49% | 1009.8 hPa | 0 mm | - | - | - |
| 1777921329 | 17.78° C | 48% | 1009.7 hPa | 0 mm | - | - | - |
| 1777919529 | 18.33° C | 45% | 1010 hPa | 0 mm | - | - | - |
| 1777917734 | 19.44° C | 42% | 1009.7 hPa | 0 mm | - | - | - |
| 1777915929 | 20° C | 43% | 1009.7 hPa | 0 mm | - | - | - |
| 1777914130 | 20.56° C | 41% | 1009.5 hPa | 0 mm | - | - | - |
| 1777912332 | 21.11° C | 39% | 1009.3 hPa | 0 mm | - | - | - |
| 1777910530 | 21.67° C | 42% | 1009.2 hPa | 0 mm | - | - | - |
| 1777908732 | 22.22° C | 42% | 1009 hPa | 0 mm | - | - | - |
| 1777906930 | 22.22° C | 42% | 1009.1 hPa | 0 mm | - | - | - |
| 1777905129 | 22.22° C | 42% | 1009.3 hPa | 0 mm | - | - | - |
| 1777903330 | 22.22° C | 40% | 1009.4 hPa | 0 mm | - | - | - |
| 1777901532 | 22.78° C | 40% | 1009.7 hPa | 0 mm | - | - | - |
| 1777899735 | 22.22° C | 41% | 1010 hPa | 0 mm | - | - | - |
| 1777897935 | 22.22° C | 42% | 1010.3 hPa | 0 mm | - | - | - |
| 1777896130 | 21.11° C | 44% | 1010.5 hPa | 0 mm | - | - | - |
| 1777894331 | 21.11° C | 44% | 1010.7 hPa | 0 mm | - | - | - |
| 1777892530 | 21.11° C | 44% | 1011 hPa | 0 mm | - | - | - |
| 1777890735 | 20.56° C | 45% | 1011.2 hPa | 0 mm | - | - | - |
| 1777888932 | 20° C | 45% | 1011.5 hPa | 0 mm | - | - | - |
| 1777887130 | 20.56° C | 46% | 1011.8 hPa | 0 mm | - | - | - |
* Rain since midnight (hover to see other rain measurements)
** Current wind speed in m/s (hover to see current wind gust speed)